Terug naar catalogus

LEMUR-2-VUKASIN

ActiefWetenschapSSO
NORAD 66785·PAYLOAD·🇺🇸 United States

Gelanceerd Nov 28, 2025 vanaf Vandenberg Space Force Base

Loading…

Volgende Passages (komende 24 uur)

TLE

VersSource: Space-Track

Epoch: Sep 14, 2026, 15:28 UTC

1 66785U 25276DZ  26257.64463795  .00004183  00000-0  33218-3 0  9996
2 66785  97.5038 325.6439 0005888 135.4015 224.7684 15.00988069 43563

Volg LEMUR-2-VUKASIN in realtime met AllMySat

Download on the App Store